GEFSNE_prec_meanprecacc_024.txt.gz
Total_Precipitation_Accumulation
0.07 0.07 0.08 0.08 0.09 0.12 0.15 0.22 0.25 0.18 0.11 0.07 0.07 0.11 0.19 0.21 0.23 0.27 0.31 0.20 0.19 0.25 0.25 0.28 0.32 0.42 0.43 0.35 0.27 0.20 0.17 0.15 0.13 0.13 0.14 0.17 0.20 0.23
0.08 0.07 0.07 0.08 0.09 0.10 0.12 0.16 0.22 0.25 0.21 0.10 0.08 0.13 0.18 0.19 0.23 0.29 0.29 0.27 0.33 0.55 0.66 0.58 0.53 0.65 0.71 0.57 0.41 0.31 0.25 0.22 0.21 0.22 0.22 0.23 0.26 0.28
0.06 0.07 0.07 0.08 0.10 0.11 0.13 0.17 0.20 0.27 0.29 0.16 0.11 0.15 0.20 0.22 0.26 0.31 0.32 0.34 0.45 0.84 1.11 1.30 1.05 0.95 0.98 0.83 0.63 0.44 0.35 0.30 0.29 0.31 0.32 0.35 0.35 0.35
0.08 0.10 0.10 0.10 0.11 0.13 0.17 0.20 0.22 0.28 0.36 0.30 0.22 0.27 0.31 0.33 0.42 0.44 0.42 0.38 0.41 0.83 1.23 1.57 1.53 1.31 1.32 1.14 0.93 0.67 0.49 0.41 0.39 0.39 0.39 0.39 0.41 0.43
0.10 0.12 0.12 0.15 0.17 0.19 0.26 0.29 0.30 0.32 0.40 0.40 0.34 0.39 0.46 0.53 0.60 0.55 0.44 0.37 0.33 0.64 1.12 1.45 1.63 1.70 1.81 1.67 1.36 0.99 0.71 0.54 0.46 0.45 0.44 0.43 0.42 0.39
0.13 0.17 0.20 0.25 0.27 0.30 0.31 0.29 0.31 0.35 0.39 0.44 0.43 0.50 0.56 0.62 0.58 0.55 0.44 0.35 0.33 0.46 0.89 1.40 1.74 1.84 2.05 2.18 1.89 1.38 0.96 0.68 0.52 0.45 0.40 0.36 0.34 0.33
0.14 0.16 0.21 0.28 0.31 0.28 0.25 0.24 0.29 0.37 0.39 0.46 0.50 0.50 0.51 0.55 0.50 0.39 0.32 0.29 0.28 0.35 0.53 1.00 1.67 1.97 1.99 2.10 2.06 1.60 1.17 0.85 0.63 0.51 0.42 0.36 0.33 0.32
0.17 0.16 0.15 0.17 0.17 0.17 0.22 0.24 0.28 0.40 0.56 0.63 0.53 0.44 0.36 0.32 0.29 0.26 0.27 0.25 0.24 0.21 0.26 0.61 1.22 1.81 1.99 2.01 1.96 1.51 1.12 0.86 0.70 0.59 0.52 0.45 0.39 0.36
0.18 0.15 0.10 0.07 0.08 0.09 0.15 0.21 0.29 0.41 0.51 0.65 0.60 0.37 0.33 0.25 0.23 0.26 0.28 0.30 0.27 0.16 0.20 0.46 0.89 1.40 1.68 1.80 1.67 1.25 0.95 0.79 0.70 0.62 0.56 0.50 0.44 0.40
0.14 0.12 0.09 0.06 0.08 0.16 0.18 0.19 0.24 0.31 0.38 0.43 0.58 0.44 0.31 0.29 0.27 0.25 0.26 0.29 0.25 0.14 0.15 0.36 0.69 1.06 1.22 1.27 1.26 1.02 0.83 0.72 0.65 0.57 0.53 0.50 0.45 0.40
0.09 0.08 0.06 0.05 0.13 0.26 0.30 0.33 0.38 0.44 0.48 0.61 0.75 0.74 0.62 0.54 0.42 0.33 0.28 0.21 0.16 0.13 0.16 0.28 0.49 0.71 0.83 0.86 0.87 0.78 0.67 0.61 0.57 0.52 0.48 0.44 0.37 0.32
0.04 0.05 0.06 0.09 0.18 0.32 0.42 0.45 0.48 0.57 0.49 0.54 0.73 0.83 0.72 0.72 0.72 0.52 0.33 0.17 0.12 0.13 0.16 0.20 0.31 0.40 0.55 0.62 0.57 0.52 0.49 0.49 0.46 0.43 0.40 0.33 0.23 0.16
0.02 0.05 0.10 0.15 0.21 0.36 0.49 0.50 0.61 0.68 0.59 0.48 0.50 0.57 0.64 0.65 0.62 0.58 0.40 0.20 0.11 0.08 0.09 0.13 0.20 0.24 0.29 0.38 0.40 0.36 0.31 0.30 0.29 0.29 0.29 0.26 0.19 0.11
0.04 0.10 0.18 0.19 0.21 0.35 0.47 0.62 0.79 0.84 0.64 0.50 0.39 0.35 0.37 0.41 0.45 0.41 0.31 0.20 0.12 0.07 0.07 0.09 0.14 0.19 0.17 0.16 0.22 0.23 0.19 0.16 0.14 0.13 0.14 0.14 0.13 0.11
0.08 0.16 0.20 0.18 0.23 0.40 0.59 0.76 0.86 0.80 0.69 0.53 0.37 0.32 0.29 0.28 0.30 0.33 0.29 0.20 0.13 0.10 0.07 0.06 0.07 0.11 0.10 0.08 0.09 0.10 0.10 0.10 0.08 0.06 0.05 0.05 0.04 0.03
0.07 0.14 0.18 0.19 0.27 0.45 0.61 0.72 0.75 0.74 0.66 0.52 0.41 0.38 0.34 0.29 0.28 0.24 0.20 0.15 0.11 0.10 0.07 0.04 0.04 0.05 0.06 0.05 0.05 0.06 0.06 0.07 0.07 0.05 0.04 0.03 0.02 0.01
0.06 0.08 0.11 0.17 0.28 0.42 0.56 0.63 0.64 0.63 0.61 0.45 0.35 0.37 0.39 0.33 0.29 0.22 0.15 0.10 0.07 0.06 0.06 0.05 0.04 0.03 0.04 0.04 0.04 0.05 0.05 0.04 0.04 0.03 0.02 0.01 0.01 0.00
0.04 0.05 0.08 0.16 0.29 0.45 0.57 0.60 0.56 0.51 0.46 0.36 0.29 0.29 0.29 0.26 0.25 0.19 0.11 0.07 0.05 0.03 0.03 0.03 0.03 0.03 0.03 0.03 0.02 0.02 0.02 0.02 0.02 0.01 0.01 0.00 0.00 0.00
0.04 0.06 0.10 0.17 0.28 0.41 0.51 0.54 0.51 0.44 0.36 0.31 0.26 0.23 0.20 0.19 0.16 0.12 0.08 0.05 0.03 0.02 0.02 0.01 0.01 0.01 0.01 0.02 0.02 0.01 0.01 0.01 0.01 0.01 0.00 0.00 0.00 0.00
0.06 0.10 0.14 0.18 0.23 0.31 0.39 0.46 0.49 0.43 0.35 0.30 0.27 0.23 0.18 0.14 0.11 0.07 0.04 0.03 0.02 0.01 0.02 0.01 0.01 0.00 0.00 0.01 0.01 0.01 0.00 0.01 0.01 0.01 0.00 0.00 0.00 0.00
0.09 0.12 0.16 0.20 0.21 0.23 0.27 0.33 0.38 0.37 0.33 0.29 0.26 0.24 0.19 0.13 0.08 0.05 0.03 0.02 0.02 0.02 0.02 0.02 0.01 0.00 0.00 0.00 0.01 0.01 0.00 0.00 0.00 0.00 0.00 0.00 0.00 0.00
0.10 0.13 0.17 0.20 0.20 0.19 0.20 0.23 0.27 0.29 0.28 0.26 0.24 0.22 0.17 0.10 0.06 0.04 0.03 0.03 0.03 0.02 0.01 0.01 0.00 0.00 0.00 0.00 0.01 0.01 0.01 0.00 0.00 0.00 0.00 0.00 0.00 0.00
0.11 0.12 0.15 0.18 0.19 0.18 0.17 0.18 0.22 0.25 0.25 0.26 0.25 0.21 0.15 0.09 0.07 0.05 0.04 0.02 0.01 0.01 0.01 0.01 0.01 0.00 0.00 0.00 0.00 0.01 0.01 0.01 0.01 0.00 0.00 0.00 0.00 0.00

GEFSNE_prec_meanprecacc_030.txt.gz
Total_Precipitation_Accumulation
0.07 0.07 0.08 0.08 0.09 0.12 0.16 0.23 0.27 0.20 0.12 0.07 0.08 0.11 0.19 0.21 0.23 0.27 0.31 0.21 0.20 0.26 0.26 0.29 0.33 0.43 0.44 0.36 0.28 0.21 0.18 0.17 0.15 0.15 0.18 0.20 0.23 0.25
0.08 0.07 0.07 0.08 0.09 0.10 0.12 0.16 0.23 0.28 0.24 0.11 0.08 0.13 0.18 0.19 0.23 0.29 0.29 0.28 0.34 0.57 0.68 0.60 0.54 0.66 0.72 0.58 0.42 0.31 0.26 0.23 0.22 0.23 0.23 0.25 0.27 0.29
0.06 0.07 0.07 0.08 0.10 0.11 0.13 0.17 0.21 0.29 0.32 0.18 0.12 0.15 0.20 0.22 0.27 0.31 0.33 0.35 0.46 0.88 1.15 1.34 1.08 0.96 0.99 0.84 0.64 0.45 0.35 0.31 0.30 0.32 0.33 0.35 0.36 0.36
0.08 0.10 0.10 0.10 0.11 0.13 0.17 0.20 0.23 0.30 0.40 0.33 0.24 0.28 0.31 0.33 0.42 0.44 0.42 0.38 0.42 0.87 1.26 1.60 1.56 1.33 1.33 1.15 0.93 0.67 0.50 0.42 0.39 0.39 0.39 0.40 0.41 0.43
0.10 0.12 0.12 0.15 0.17 0.20 0.26 0.30 0.31 0.34 0.43 0.43 0.35 0.39 0.46 0.53 0.61 0.56 0.46 0.38 0.34 0.67 1.15 1.47 1.64 1.71 1.81 1.68 1.36 1.00 0.71 0.54 0.47 0.45 0.45 0.43 0.42 0.39
0.13 0.17 0.20 0.25 0.28 0.31 0.32 0.31 0.33 0.36 0.40 0.45 0.44 0.50 0.57 0.62 0.59 0.57 0.47 0.37 0.35 0.48 0.90 1.41 1.75 1.85 2.05 2.19 1.91 1.39 0.97 0.69 0.53 0.46 0.40 0.36 0.35 0.33
0.14 0.16 0.21 0.28 0.33 0.30 0.27 0.26 0.31 0.39 0.41 0.48 0.52 0.52 0.52 0.56 0.53 0.42 0.35 0.31 0.30 0.36 0.54 1.01 1.68 1.99 2.03 2.15 2.12 1.65 1.20 0.87 0.64 0.51 0.43 0.36 0.33 0.33
0.17 0.16 0.15 0.17 0.17 0.17 0.23 0.25 0.30 0.42 0.60 0.68 0.58 0.47 0.38 0.35 0.33 0.30 0.31 0.28 0.26 0.22 0.27 0.62 1.23 1.86 2.09 2.15 2.14 1.65 1.19 0.89 0.72 0.60 0.53 0.45 0.40 0.37
0.18 0.15 0.10 0.08 0.08 0.10 0.15 0.21 0.30 0.44 0.58 0.74 0.68 0.42 0.37 0.30 0.28 0.29 0.31 0.32 0.29 0.18 0.21 0.47 0.93 1.55 1.88 2.04 1.95 1.44 1.06 0.84 0.73 0.64 0.57 0.52 0.46 0.43
0.14 0.12 0.10 0.06 0.09 0.16 0.18 0.20 0.26 0.36 0.45 0.51 0.67 0.50 0.37 0.34 0.32 0.29 0.30 0.32 0.28 0.15 0.17 0.39 0.80 1.27 1.45 1.51 1.54 1.24 0.97 0.81 0.71 0.63 0.57 0.54 0.50 0.49
0.09 0.08 0.06 0.05 0.13 0.27 0.32 0.36 0.43 0.54 0.61 0.73 0.86 0.83 0.70 0.60 0.47 0.37 0.33 0.25 0.19 0.15 0.17 0.33 0.60 0.85 1.02 1.10 1.11 1.04 0.88 0.77 0.68 0.61 0.56 0.52 0.47 0.49
0.04 0.05 0.07 0.10 0.19 0.33 0.45 0.51 0.58 0.72 0.66 0.69 0.84 0.90 0.76 0.75 0.77 0.58 0.38 0.20 0.14 0.14 0.17 0.26 0.40 0.50 0.73 0.87 0.81 0.71 0.68 0.71 0.67 0.61 0.57 0.49 0.38 0.35
0.03 0.05 0.11 0.17 0.23 0.40 0.56 0.60 0.75 0.85 0.77 0.63 0.59 0.61 0.66 0.67 0.65 0.61 0.42 0.22 0.11 0.09 0.11 0.18 0.30 0.33 0.40 0.58 0.67 0.62 0.53 0.50 0.49 0.56 0.62 0.55 0.43 0.35
0.07 0.12 0.20 0.22 0.25 0.43 0.59 0.78 0.97 1.03 0.80 0.61 0.45 0.39 0.39 0.43 0.46 0.42 0.31 0.20 0.12 0.09 0.09 0.13 0.23 0.30 0.26 0.28 0.46 0.55 0.51 0.47 0.40 0.41 0.47 0.50 0.48 0.48
0.11 0.19 0.23 0.22 0.32 0.53 0.80 1.00 1.08 0.99 0.82 0.59 0.41 0.35 0.31 0.29 0.31 0.33 0.30 0.21 0.15 0.11 0.10 0.11 0.17 0.25 0.23 0.20 0.29 0.37 0.43 0.48 0.42 0.40 0.39 0.39 0.40 0.42
0.09 0.16 0.21 0.26 0.40 0.65 0.87 1.00 1.00 0.92 0.76 0.55 0.44 0.41 0.35 0.31 0.29 0.25 0.22 0.16 0.13 0.13 0.11 0.10 0.14 0.19 0.23 0.22 0.23 0.28 0.28 0.40 0.43 0.37 0.34 0.33 0.31 0.30
0.08 0.10 0.15 0.25 0.42 0.62 0.79 0.87 0.86 0.80 0.69 0.47 0.37 0.39 0.41 0.35 0.30 0.24 0.17 0.11 0.09 0.09 0.10 0.11 0.13 0.16 0.18 0.18 0.19 0.22 0.23 0.26 0.29 0.24 0.19 0.17 0.16 0.15
0.07 0.09 0.15 0.27 0.44 0.63 0.77 0.79 0.73 0.64 0.54 0.40 0.32 0.31 0.31 0.28 0.27 0.21 0.13 0.09 0.08 0.07 0.07 0.07 0.07 0.08 0.09 0.11 0.10 0.10 0.11 0.13 0.14 0.12 0.08 0.07 0.06 0.06
0.08 0.13 0.20 0.29 0.43 0.59 0.69 0.71 0.66 0.56 0.45 0.35 0.29 0.26 0.24 0.22 0.18 0.14 0.10 0.07 0.06 0.05 0.04 0.03 0.02 0.02 0.03 0.05 0.06 0.05 0.05 0.06 0.06 0.06 0.04 0.03 0.03 0.02
0.13 0.21 0.27 0.31 0.38 0.47 0.54 0.61 0.63 0.56 0.45 0.36 0.31 0.27 0.22 0.18 0.14 0.09 0.06 0.04 0.03 0.03 0.03 0.02 0.01 0.01 0.01 0.01 0.02 0.02 0.02 0.03 0.03 0.02 0.02 0.01 0.01 0.01
0.19 0.25 0.30 0.33 0.34 0.35 0.40 0.46 0.50 0.49 0.43 0.36 0.32 0.29 0.23 0.15 0.10 0.06 0.04 0.03 0.03 0.03 0.03 0.02 0.01 0.00 0.00 0.00 0.01 0.01 0.00 0.01 0.01 0.01 0.00 0.00 0.00 0.00
0.20 0.25 0.30 0.33 0.31 0.30 0.30 0.33 0.37 0.38 0.36 0.33 0.30 0.27 0.20 0.12 0.07 0.05 0.04 0.03 0.03 0.02 0.01 0.01 0.00 0.00 0.00 0.00 0.01 0.01 0.01 0.00 0.00 0.00 0.00 0.00 0.00 0.00
0.19 0.21 0.24 0.27 0.27 0.25 0.23 0.24 0.28 0.31 0.32 0.32 0.30 0.25 0.17 0.11 0.08 0.06 0.04 0.03 0.02 0.01 0.01 0.01 0.01 0.00 0.00 0.00 0.00 0.01 0.01 0.01 0.01 0.00 0.00 0.00 0.00 0.00

GEFSNE_prec_meanprecacc_036.txt.gz
Total_Precipitation_Accumulation
0.07 0.07 0.08 0.08 0.10 0.12 0.16 0.23 0.28 0.21 0.13 0.07 0.08 0.11 0.20 0.23 0.25 0.29 0.35 0.24 0.21 0.27 0.27 0.30 0.34 0.44 0.45 0.37 0.29 0.22 0.19 0.18 0.17 0.20 0.25 0.31 0.38 0.42
0.08 0.08 0.08 0.08 0.09 0.10 0.12 0.16 0.24 0.30 0.25 0.12 0.09 0.14 0.20 0.20 0.25 0.32 0.33 0.30 0.35 0.58 0.70 0.61 0.55 0.67 0.73 0.59 0.44 0.33 0.27 0.24 0.23 0.24 0.26 0.29 0.35 0.40
0.06 0.07 0.07 0.09 0.10 0.11 0.14 0.18 0.22 0.31 0.35 0.20 0.13 0.17 0.22 0.25 0.29 0.34 0.35 0.38 0.50 0.90 1.16 1.35 1.09 0.97 1.01 0.85 0.65 0.47 0.37 0.32 0.31 0.33 0.34 0.37 0.38 0.40
0.08 0.10 0.10 0.11 0.12 0.13 0.17 0.21 0.25 0.33 0.44 0.37 0.27 0.30 0.33 0.36 0.45 0.47 0.45 0.40 0.46 0.89 1.28 1.62 1.57 1.35 1.34 1.17 0.95 0.68 0.51 0.42 0.40 0.40 0.40 0.41 0.42 0.45
0.11 0.12 0.13 0.16 0.17 0.20 0.27 0.31 0.33 0.37 0.47 0.48 0.39 0.42 0.48 0.55 0.64 0.59 0.49 0.42 0.37 0.68 1.16 1.48 1.66 1.72 1.83 1.68 1.37 1.00 0.71 0.54 0.47 0.45 0.45 0.44 0.43 0.40
0.14 0.17 0.20 0.25 0.28 0.31 0.34 0.33 0.36 0.41 0.45 0.50 0.48 0.53 0.59 0.64 0.63 0.62 0.51 0.42 0.40 0.50 0.93 1.42 1.76 1.85 2.06 2.20 1.91 1.40 0.97 0.69 0.53 0.46 0.40 0.36 0.35 0.34
0.14 0.16 0.21 0.28 0.33 0.31 0.29 0.29 0.35 0.44 0.46 0.53 0.56 0.55 0.55 0.59 0.58 0.49 0.41 0.37 0.34 0.39 0.56 1.03 1.69 2.00 2.04 2.16 2.13 1.66 1.20 0.88 0.64 0.51 0.43 0.36 0.33 0.33
0.17 0.16 0.15 0.17 0.17 0.18 0.24 0.27 0.33 0.47 0.65 0.74 0.64 0.52 0.41 0.39 0.39 0.38 0.38 0.34 0.30 0.24 0.29 0.63 1.24 1.87 2.10 2.17 2.17 1.69 1.22 0.90 0.72 0.61 0.53 0.45 0.40 0.37
0.19 0.16 0.11 0.08 0.09 0.11 0.16 0.23 0.31 0.46 0.64 0.83 0.78 0.50 0.42 0.36 0.36 0.38 0.38 0.38 0.34 0.21 0.22 0.48 0.94 1.57 1.92 2.08 2.01 1.49 1.09 0.86 0.74 0.65 0.58 0.52 0.47 0.43
0.15 0.13 0.11 0.07 0.10 0.18 0.20 0.21 0.28 0.40 0.53 0.61 0.78 0.60 0.45 0.42 0.40 0.37 0.38 0.38 0.31 0.17 0.18 0.40 0.82 1.32 1.50 1.57 1.63 1.32 1.02 0.84 0.72 0.64 0.58 0.55 0.51 0.49
0.09 0.09 0.07 0.07 0.15 0.29 0.34 0.39 0.47 0.60 0.71 0.86 0.99 0.94 0.80 0.67 0.53 0.43 0.37 0.28 0.23 0.17 0.19 0.35 0.65 0.92 1.10 1.18 1.20 1.16 0.98 0.84 0.73 0.66 0.59 0.54 0.49 0.50
0.05 0.05 0.07 0.11 0.20 0.36 0.49 0.56 0.64 0.79 0.76 0.82 0.97 1.00 0.83 0.80 0.80 0.62 0.41 0.24 0.16 0.16 0.19 0.29 0.45 0.56 0.83 0.99 0.94 0.86 0.82 0.86 0.82 0.72 0.64 0.54 0.42 0.37
0.04 0.07 0.12 0.19 0.27 0.45 0.63 0.66 0.82 0.95 0.87 0.74 0.67 0.67 0.70 0.70 0.67 0.63 0.44 0.23 0.13 0.11 0.13 0.21 0.35 0.38 0.48 0.70 0.84 0.84 0.75 0.71 0.67 0.70 0.73 0.63 0.49 0.38
0.09 0.15 0.23 0.28 0.33 0.52 0.68 0.86 1.07 1.13 0.89 0.70 0.50 0.43 0.42 0.45 0.49 0.44 0.33 0.22 0.14 0.11 0.13 0.18 0.29 0.36 0.32 0.37 0.64 0.78 0.76 0.70 0.60 0.58 0.60 0.60 0.54 0.52
0.13 0.23 0.30 0.32 0.45 0.67 0.93 1.12 1.19 1.07 0.89 0.65 0.44 0.38 0.34 0.32 0.35 0.37 0.33 0.24 0.17 0.14 0.14 0.17 0.23 0.31 0.28 0.27 0.43 0.53 0.62 0.73 0.65 0.58 0.51 0.45 0.43 0.44
0.11 0.22 0.32 0.40 0.56 0.81 1.01 1.11 1.09 0.99 0.80 0.58 0.46 0.44 0.39 0.35 0.34 0.30 0.26 0.19 0.16 0.17 0.17 0.16 0.21 0.26 0.29 0.28 0.32 0.38 0.41 0.61 0.63 0.51 0.44 0.41 0.39 0.38
0.12 0.17 0.24 0.36 0.55 0.74 0.88 0.95 0.92 0.84 0.72 0.50 0.41 0.43 0.45 0.40 0.36 0.29 0.21 0.14 0.12 0.13 0.15 0.17 0.20 0.22 0.24 0.25 0.27 0.31 0.34 0.42 0.46 0.37 0.29 0.29 0.31 0.31
0.12 0.17 0.26 0.39 0.57 0.74 0.85 0.85 0.77 0.68 0.57 0.43 0.36 0.35 0.36 0.33 0.32 0.26 0.17 0.12 0.11 0.10 0.11 0.13 0.13 0.12 0.13 0.18 0.22 0.22 0.24 0.29 0.32 0.27 0.18 0.17 0.23 0.26
0.13 0.21 0.31 0.42 0.56 0.69 0.76 0.75 0.70 0.60 0.48 0.39 0.33 0.31 0.28 0.27 0.23 0.19 0.15 0.11 0.09 0.08 0.08 0.07 0.06 0.05 0.04 0.11 0.20 0.19 0.18 0.20 0.20 0.19 0.16 0.12 0.15 0.18
0.19 0.30 0.37 0.43 0.49 0.56 0.62 0.66 0.68 0.60 0.49 0.40 0.36 0.32 0.27 0.23 0.19 0.14 0.11 0.09 0.07 0.06 0.06 0.04 0.03 0.03 0.02 0.03 0.08 0.12 0.11 0.12 0.11 0.10 0.10 0.09 0.10 0.11
0.26 0.34 0.39 0.42 0.43 0.44 0.47 0.52 0.55 0.54 0.47 0.41 0.37 0.34 0.29 0.21 0.15 0.10 0.08 0.05 0.05 0.04 0.04 0.03 0.02 0.01 0.01 0.01 0.02 0.05 0.05 0.05 0.05 0.05 0.04 0.04 0.05 0.05
0.26 0.32 0.37 0.40 0.38 0.37 0.37 0.39 0.42 0.43 0.41 0.38 0.35 0.32 0.26 0.17 0.12 0.09 0.07 0.06 0.04 0.03 0.02 0.02 0.01 0.00 0.00 0.00 0.01 0.02 0.02 0.02 0.02 0.02 0.02 0.01 0.02 0.02
0.24 0.26 0.28 0.32 0.33 0.31 0.29 0.30 0.33 0.36 0.37 0.37 0.35 0.30 0.22 0.16 0.12 0.09 0.07 0.04 0.03 0.02 0.01 0.01 0.01 0.00 0.00 0.00 0.01 0.01 0.02 0.02 0.01 0.01 0.00 0.00 0.00 0.00

GEFSNE_prec_meanprecacc_042.txt.gz
Total_Precipitation_Accumulation
0.08 0.08 0.09 0.09 0.10 0.12 0.16 0.24 0.29 0.21 0.13 0.07 0.08 0.11 0.20 0.23 0.25 0.30 0.37 0.26 0.23 0.28 0.28 0.30 0.34 0.44 0.45 0.37 0.29 0.23 0.20 0.18 0.18 0.21 0.27 0.35 0.43 0.52
0.10 0.10 0.10 0.09 0.10 0.11 0.13 0.17 0.25 0.31 0.26 0.12 0.09 0.14 0.20 0.20 0.25 0.33 0.35 0.32 0.37 0.59 0.71 0.62 0.56 0.67 0.73 0.59 0.44 0.33 0.27 0.24 0.24 0.25 0.27 0.31 0.38 0.45
0.08 0.09 0.10 0.11 0.13 0.13 0.15 0.19 0.23 0.32 0.37 0.21 0.14 0.18 0.24 0.27 0.31 0.37 0.38 0.41 0.53 0.93 1.19 1.37 1.11 0.98 1.01 0.86 0.66 0.47 0.38 0.33 0.32 0.34 0.35 0.38 0.41 0.43
0.11 0.13 0.12 0.13 0.14 0.15 0.19 0.22 0.26 0.35 0.47 0.40 0.29 0.32 0.36 0.38 0.48 0.50 0.46 0.42 0.49 0.92 1.30 1.64 1.59 1.36 1.35 1.17 0.95 0.69 0.51 0.43 0.40 0.41 0.41 0.42 0.43 0.47
0.13 0.15 0.15 0.18 0.19 0.22 0.29 0.33 0.35 0.39 0.50 0.52 0.42 0.44 0.50 0.57 0.67 0.62 0.53 0.48 0.42 0.71 1.17 1.50 1.68 1.74 1.84 1.69 1.38 1.00 0.71 0.54 0.47 0.45 0.45 0.45 0.43 0.41
0.15 0.19 0.22 0.27 0.30 0.34 0.36 0.35 0.38 0.44 0.49 0.55 0.52 0.56 0.62 0.67 0.69 0.68 0.57 0.49 0.47 0.56 0.98 1.47 1.80 1.87 2.07 2.21 1.92 1.40 0.98 0.69 0.53 0.46 0.40 0.37 0.35 0.34
0.15 0.17 0.22 0.30 0.34 0.33 0.31 0.32 0.39 0.48 0.50 0.58 0.60 0.59 0.57 0.63 0.63 0.55 0.47 0.42 0.38 0.44 0.62 1.09 1.75 2.05 2.09 2.19 2.14 1.66 1.21 0.88 0.65 0.51 0.43 0.36 0.33 0.33
0.18 0.17 0.16 0.19 0.19 0.19 0.25 0.30 0.37 0.51 0.70 0.78 0.68 0.56 0.44 0.43 0.44 0.43 0.44 0.39 0.35 0.28 0.33 0.67 1.28 1.91 2.15 2.22 2.21 1.70 1.22 0.91 0.72 0.61 0.53 0.45 0.40 0.37
0.20 0.18 0.12 0.09 0.11 0.14 0.20 0.26 0.34 0.49 0.68 0.89 0.84 0.56 0.48 0.41 0.43 0.44 0.44 0.45 0.41 0.26 0.27 0.52 0.97 1.61 1.95 2.11 2.04 1.50 1.10 0.86 0.74 0.65 0.58 0.52 0.47 0.43
0.16 0.15 0.14 0.10 0.13 0.21 0.22 0.23 0.30 0.42 0.57 0.65 0.83 0.66 0.51 0.48 0.46 0.43 0.44 0.44 0.36 0.22 0.22 0.44 0.85 1.36 1.53 1.59 1.65 1.33 1.03 0.84 0.73 0.64 0.58 0.55 0.51 0.49
0.10 0.10 0.09 0.09 0.17 0.30 0.36 0.41 0.49 0.62 0.74 0.90 1.04 0.99 0.86 0.74 0.58 0.48 0.44 0.35 0.29 0.23 0.24 0.41 0.69 0.96 1.12 1.20 1.22 1.18 1.00 0.85 0.74 0.66 0.59 0.54 0.49 0.50
0.05 0.06 0.09 0.13 0.22 0.38 0.51 0.59 0.67 0.82 0.79 0.86 1.03 1.07 0.89 0.86 0.86 0.67 0.47 0.31 0.24 0.25 0.25 0.35 0.50 0.60 0.87 1.02 0.97 0.90 0.85 0.91 0.86 0.74 0.65 0.55 0.42 0.38
0.05 0.08 0.15 0.22 0.30 0.48 0.66 0.69 0.85 0.97 0.91 0.78 0.71 0.71 0.75 0.74 0.71 0.67 0.49 0.30 0.20 0.18 0.19 0.27 0.40 0.43 0.53 0.75 0.89 0.91 0.84 0.81 0.75 0.77 0.79 0.68 0.52 0.40
0.11 0.17 0.26 0.32 0.37 0.57 0.71 0.89 1.10 1.17 0.93 0.74 0.54 0.47 0.45 0.49 0.53 0.49 0.39 0.28 0.21 0.17 0.18 0.22 0.34 0.41 0.38 0.44 0.75 0.92 0.92 0.88 0.77 0.72 0.70 0.69 0.60 0.56
0.15 0.27 0.34 0.38 0.51 0.73 0.96 1.15 1.22 1.11 0.93 0.68 0.48 0.42 0.38 0.37 0.40 0.42 0.39 0.29 0.22 0.19 0.19 0.21 0.26 0.35 0.34 0.35 0.56 0.69 0.81 0.98 0.89 0.78 0.65 0.56 0.52 0.49
0.14 0.27 0.40 0.47 0.62 0.85 1.04 1.15 1.12 1.02 0.84 0.62 0.51 0.49 0.44 0.39 0.38 0.34 0.29 0.23 0.20 0.22 0.21 0.20 0.25 0.30 0.34 0.36 0.43 0.53 0.60 0.87 0.92 0.71 0.59 0.55 0.49 0.43
0.16 0.22 0.30 0.42 0.61 0.78 0.93 0.99 0.96 0.88 0.77 0.55 0.46 0.49 0.50 0.44 0.40 0.32 0.24 0.17 0.15 0.17 0.19 0.22 0.24 0.25 0.28 0.31 0.37 0.45 0.51 0.63 0.68 0.53 0.39 0.40 0.42 0.38
0.18 0.22 0.31 0.45 0.63 0.79 0.90 0.90 0.82 0.73 0.62 0.49 0.42 0.41 0.41 0.38 0.36 0.30 0.20 0.15 0.13 0.13 0.14 0.16 0.16 0.15 0.15 0.24 0.33 0.33 0.35 0.43 0.45 0.36 0.24 0.23 0.34 0.38
0.17 0.26 0.37 0.48 0.62 0.75 0.82 0.80 0.75 0.65 0.54 0.45 0.39 0.37 0.34 0.32 0.28 0.23 0.18 0.14 0.12 0.11 0.10 0.09 0.09 0.09 0.08 0.17 0.33 0.33 0.29 0.30 0.28 0.24 0.19 0.16 0.23 0.31
0.22 0.34 0.42 0.48 0.55 0.62 0.68 0.72 0.73 0.66 0.55 0.46 0.42 0.39 0.33 0.28 0.23 0.18 0.14 0.11 0.09 0.08 0.07 0.06 0.07 0.07 0.06 0.08 0.19 0.28 0.27 0.23 0.17 0.14 0.13 0.14 0.18 0.22
0.29 0.37 0.43 0.47 0.49 0.50 0.53 0.58 0.60 0.59 0.53 0.47 0.44 0.42 0.35 0.26 0.19 0.13 0.10 0.07 0.06 0.05 0.05 0.05 0.04 0.04 0.03 0.03 0.07 0.13 0.16 0.16 0.12 0.09 0.08 0.08 0.09 0.10
0.29 0.36 0.41 0.44 0.43 0.43 0.43 0.45 0.47 0.48 0.47 0.44 0.42 0.39 0.32 0.22 0.16 0.12 0.09 0.07 0.06 0.04 0.03 0.03 0.02 0.02 0.02 0.02 0.04 0.06 0.07 0.07 0.06 0.05 0.05 0.04 0.04 0.05
0.27 0.28 0.31 0.35 0.36 0.35 0.34 0.35 0.39 0.42 0.43 0.44 0.42 0.37 0.28 0.20 0.16 0.11 0.08 0.05 0.03 0.02 0.01 0.01 0.01 0.01 0.01 0.01 0.02 0.03 0.04 0.03 0.03 0.02 0.04 0.03 0.02 0.02

GEFSNE_prec_meanprecacc_048.txt.gz
Total_Precipitation_Accumulation
0.08 0.08 0.09 0.09 0.10 0.12 0.16 0.24 0.29 0.22 0.13 0.07 0.08 0.11 0.20 0.23 0.25 0.30 0.37 0.26 0.24 0.29 0.29 0.31 0.36 0.45 0.47 0.38 0.30 0.24 0.21 0.19 0.19 0.21 0.28 0.36 0.45 0.54
0.10 0.10 0.10 0.10 0.10 0.11 0.13 0.17 0.26 0.32 0.27 0.12 0.09 0.14 0.20 0.20 0.25 0.33 0.35 0.32 0.37 0.60 0.71 0.63 0.57 0.69 0.75 0.61 0.46 0.35 0.29 0.25 0.24 0.25 0.27 0.32 0.39 0.47
0.09 0.09 0.10 0.11 0.13 0.13 0.15 0.19 0.23 0.33 0.37 0.21 0.14 0.18 0.24 0.27 0.31 0.37 0.38 0.41 0.53 0.94 1.21 1.39 1.13 1.00 1.03 0.88 0.69 0.50 0.40 0.35 0.33 0.35 0.36 0.39 0.42 0.44
0.11 0.13 0.13 0.13 0.14 0.15 0.19 0.22 0.26 0.35 0.48 0.40 0.29 0.32 0.36 0.38 0.48 0.50 0.47 0.42 0.50 0.93 1.32 1.65 1.61 1.38 1.38 1.19 0.98 0.71 0.53 0.44 0.42 0.42 0.42 0.43 0.45 0.49
0.13 0.15 0.15 0.18 0.19 0.22 0.29 0.33 0.35 0.40 0.51 0.53 0.42 0.45 0.50 0.57 0.68 0.63 0.53 0.48 0.43 0.72 1.19 1.53 1.71 1.77 1.87 1.71 1.39 1.01 0.72 0.55 0.47 0.46 0.46 0.46 0.45 0.43
0.15 0.19 0.22 0.27 0.30 0.34 0.36 0.35 0.39 0.44 0.49 0.55 0.52 0.56 0.62 0.68 0.69 0.69 0.58 0.49 0.47 0.56 0.99 1.49 1.82 1.89 2.09 2.22 1.93 1.41 0.98 0.69 0.53 0.46 0.41 0.37 0.35 0.35
0.15 0.17 0.22 0.30 0.35 0.34 0.32 0.32 0.40 0.49 0.52 0.59 0.61 0.60 0.58 0.64 0.64 0.56 0.49 0.43 0.39 0.44 0.63 1.09 1.76 2.06 2.10 2.21 2.16 1.69 1.23 0.89 0.65 0.52 0.43 0.37 0.34 0.33
0.18 0.17 0.16 0.19 0.19 0.20 0.27 0.32 0.40 0.54 0.73 0.81 0.71 0.58 0.46 0.45 0.46 0.46 0.46 0.42 0.37 0.29 0.33 0.68 1.28 1.92 2.16 2.23 2.23 1.73 1.24 0.92 0.74 0.62 0.54 0.46 0.40 0.38
0.20 0.18 0.13 0.09 0.12 0.15 0.21 0.27 0.35 0.51 0.71 0.93 0.88 0.59 0.51 0.44 0.47 0.49 0.48 0.49 0.44 0.28 0.29 0.54 0.98 1.62 1.96 2.13 2.06 1.52 1.11 0.88 0.76 0.67 0.59 0.54 0.48 0.43
0.16 0.15 0.14 0.10 0.14 0.21 0.23 0.24 0.30 0.43 0.58 0.67 0.85 0.68 0.53 0.51 0.51 0.48 0.49 0.49 0.39 0.24 0.26 0.48 0.87 1.37 1.55 1.61 1.68 1.35 1.05 0.86 0.75 0.66 0.60 0.56 0.52 0.50
0.10 0.10 0.09 0.10 0.17 0.31 0.37 0.42 0.50 0.63 0.75 0.92 1.06 1.02 0.89 0.78 0.63 0.53 0.49 0.41 0.34 0.27 0.29 0.45 0.72 0.98 1.14 1.21 1.24 1.21 1.02 0.87 0.76 0.68 0.61 0.56 0.50 0.51
0.05 0.06 0.10 0.14 0.23 0.40 0.52 0.60 0.68 0.83 0.80 0.88 1.04 1.09 0.92 0.89 0.91 0.72 0.53 0.37 0.30 0.31 0.30 0.39 0.54 0.63 0.90 1.05 1.00 0.92 0.87 0.93 0.88 0.77 0.68 0.57 0.44 0.39
0.05 0.09 0.16 0.23 0.31 0.50 0.67 0.70 0.86 0.99 0.92 0.80 0.73 0.72 0.76 0.76 0.74 0.71 0.54 0.36 0.26 0.24 0.24 0.32 0.45 0.47 0.57 0.79 0.92 0.95 0.87 0.84 0.78 0.81 0.82 0.70 0.54 0.42
0.12 0.18 0.28 0.34 0.39 0.58 0.72 0.90 1.12 1.18 0.94 0.75 0.56 0.48 0.47 0.52 0.56 0.52 0.43 0.32 0.26 0.22 0.22 0.27 0.39 0.45 0.41 0.47 0.79 0.98 0.99 0.96 0.85 0.79 0.75 0.74 0.64 0.59
0.17 0.29 0.36 0.39 0.52 0.74 0.98 1.16 1.23 1.12 0.95 0.70 0.50 0.45 0.40 0.39 0.42 0.45 0.42 0.32 0.26 0.23 0.23 0.25 0.31 0.40 0.37 0.39 0.62 0.77 0.91 1.12 1.03 0.89 0.73 0.63 0.57 0.53
0.16 0.29 0.41 0.49 0.63 0.87 1.06 1.16 1.14 1.04 0.86 0.64 0.54 0.52 0.47 0.42 0.41 0.37 0.32 0.25 0.23 0.25 0.24 0.24 0.29 0.33 0.38 0.40 0.48 0.62 0.72 1.04 1.08 0.84 0.70 0.65 0.57 0.49
0.18 0.23 0.31 0.44 0.62 0.80 0.94 1.01 0.98 0.91 0.80 0.59 0.49 0.52 0.53 0.47 0.43 0.35 0.26 0.18 0.17 0.19 0.22 0.25 0.27 0.28 0.30 0.35 0.43 0.55 0.64 0.80 0.85 0.67 0.50 0.52 0.56 0.49
0.20 0.23 0.33 0.47 0.66 0.82 0.92 0.93 0.85 0.77 0.66 0.53 0.46 0.44 0.44 0.41 0.39 0.32 0.22 0.16 0.15 0.15 0.16 0.19 0.18 0.17 0.16 0.26 0.40 0.43 0.47 0.58 0.59 0.47 0.32 0.33 0.48 0.51
0.18 0.28 0.39 0.51 0.66 0.79 0.85 0.83 0.78 0.69 0.59 0.49 0.43 0.40 0.36 0.34 0.29 0.25 0.20 0.16 0.14 0.12 0.12 0.11 0.11 0.10 0.09 0.21 0.41 0.44 0.41 0.43 0.38 0.33 0.27 0.24 0.36 0.45
0.24 0.37 0.46 0.52 0.58 0.66 0.71 0.75 0.77 0.70 0.59 0.50 0.46 0.41 0.35 0.29 0.23 0.19 0.15 0.13 0.11 0.09 0.09 0.08 0.08 0.08 0.07 0.12 0.27 0.40 0.38 0.31 0.23 0.20 0.19 0.20 0.28 0.34
0.31 0.40 0.47 0.51 0.52 0.53 0.57 0.62 0.65 0.64 0.57 0.51 0.47 0.44 0.36 0.27 0.19 0.13 0.10 0.08 0.07 0.07 0.07 0.06 0.06 0.06 0.04 0.04 0.11 0.21 0.25 0.25 0.18 0.13 0.11 0.11 0.14 0.14
0.32 0.39 0.44 0.47 0.46 0.46 0.46 0.48 0.51 0.52 0.50 0.47 0.44 0.41 0.33 0.23 0.16 0.12 0.09 0.08 0.06 0.05 0.04 0.04 0.04 0.03 0.03 0.04 0.07 0.11 0.12 0.13 0.12 0.10 0.09 0.06 0.05 0.08
0.30 0.32 0.35 0.38 0.38 0.37 0.37 0.38 0.41 0.44 0.46 0.47 0.44 0.39 0.29 0.21 0.16 0.12 0.08 0.05 0.03 0.02 0.02 0.02 0.02 0.01 0.01 0.02 0.03 0.05 0.06 0.06 0.05 0.05 0.08 0.07 0.05 0.05